Year,Month,Day,Hour,Minute,Value (Times are PST for temperature in C)
2018,07,15,00,00,20.70
2018,07,15,00,01,20.70
2018,07,15,00,02,20.80
2018,07,15,00,03,20.90
2018,07,15,00,04,21.00
2018,07,15,00,05,21.10
2018,07,15,00,06,21.10
2018,07,15,00,07,21.20
2018,07,15,00,08,21.20
2018,07,15,00,09,21.30
2018,07,15,00,10,21.30
2018,07,15,00,11,21.30
2018,07,15,00,12,21.30
2018,07,15,00,13,21.30
2018,07,15,00,14,21.30
2018,07,15,00,15,21.30
2018,07,15,00,16,21.30
2018,07,15,00,17,21.30
2018,07,15,00,18,21.30
2018,07,15,00,19,21.30
2018,07,15,00,20,21.20
2018,07,15,00,21,21.20
2018,07,15,00,22,21.20
2018,07,15,00,23,21.10
2018,07,15,00,24,21.10
2018,07,15,00,25,21.00
2018,07,15,00,26,21.00
2018,07,15,00,27,21.00
2018,07,15,00,28,20.90
2018,07,15,00,29,20.90
2018,07,15,00,30,20.90
2018,07,15,00,31,20.90
2018,07,15,00,32,21.00
2018,07,15,00,33,21.00
2018,07,15,00,34,21.00
2018,07,15,00,35,21.00
2018,07,15,00,36,21.00
2018,07,15,00,37,20.90
2018,07,15,00,38,20.90
2018,07,15,00,39,20.90
2018,07,15,00,40,20.90
2018,07,15,00,41,20.80
2018,07,15,00,42,20.80
2018,07,15,00,43,20.80
2018,07,15,00,44,20.70
2018,07,15,00,45,20.70
2018,07,15,00,46,20.70
2018,07,15,00,47,20.60
2018,07,15,00,48,20.60
2018,07,15,00,49,20.60
2018,07,15,00,50,20.50
2018,07,15,00,51,20.50
2018,07,15,00,52,20.50
2018,07,15,00,53,20.40
2018,07,15,00,54,20.40
2018,07,15,00,55,20.40
2018,07,15,00,56,20.30
2018,07,15,00,57,20.30
2018,07,15,00,58,20.30
2018,07,15,00,59,20.30
2018,07,15,01,00,20.20
2018,07,15,01,01,20.20
2018,07,15,01,02,20.20
2018,07,15,01,03,20.10
2018,07,15,01,04,20.10
2018,07,15,01,05,20.00
2018,07,15,01,06,19.90
2018,07,15,01,07,19.90
2018,07,15,01,08,19.80
2018,07,15,01,09,19.70
2018,07,15,01,10,19.60
2018,07,15,01,11,19.40
2018,07,15,01,12,19.30
2018,07,15,01,13,19.10
2018,07,15,01,14,19.00
2018,07,15,01,15,18.80
2018,07,15,01,16,18.70
2018,07,15,01,17,18.50
2018,07,15,01,18,18.40
2018,07,15,01,19,18.30
2018,07,15,01,20,18.20
2018,07,15,01,21,18.20
2018,07,15,01,22,18.10
2018,07,15,01,23,18.10
2018,07,15,01,24,18.00
2018,07,15,01,25,18.00
2018,07,15,01,26,17.90
2018,07,15,01,27,17.90
2018,07,15,01,28,17.90
2018,07,15,01,29,17.80
2018,07,15,01,30,17.80
2018,07,15,01,31,17.80
2018,07,15,01,32,17.80
2018,07,15,01,33,17.70
2018,07,15,01,34,17.70
2018,07,15,01,35,17.70
2018,07,15,01,36,17.70
2018,07,15,01,37,17.70
2018,07,15,01,38,17.70
2018,07,15,01,39,17.70
2018,07,15,01,40,17.60
2018,07,15,01,41,17.60
2018,07,15,01,42,17.60
2018,07,15,01,43,17.60
2018,07,15,01,44,17.60
2018,07,15,01,45,17.60
2018,07,15,01,46,17.60
2018,07,15,01,47,17.50
2018,07,15,01,48,17.50
2018,07,15,01,49,17.50
2018,07,15,01,50,17.50
2018,07,15,01,51,17.50
2018,07,15,01,52,17.50
2018,07,15,01,53,17.50
2018,07,15,01,54,17.50
2018,07,15,01,55,17.50
2018,07,15,01,56,17.50
2018,07,15,01,57,17.50
2018,07,15,01,58,17.50
2018,07,15,01,59,17.50
2018,07,15,02,00,17.50
2018,07,15,02,01,17.50
2018,07,15,02,02,17.50
2018,07,15,02,03,17.50
2018,07,15,02,04,17.50
2018,07,15,02,05,17.50
2018,07,15,02,06,17.40
2018,07,15,02,07,17.40
2018,07,15,02,08,17.40
2018,07,15,02,09,17.40
2018,07,15,02,10,17.40
2018,07,15,02,11,17.30
2018,07,15,02,12,17.30
2018,07,15,02,13,17.30
2018,07,15,02,14,17.30
2018,07,15,02,15,17.30
2018,07,15,02,16,17.30
2018,07,15,02,17,17.20
2018,07,15,02,18,17.20
2018,07,15,02,19,17.20
2018,07,15,02,20,17.20
2018,07,15,02,21,17.20
2018,07,15,02,22,17.20
2018,07,15,02,23,17.20
2018,07,15,02,24,17.20
2018,07,15,02,25,17.10
2018,07,15,02,26,17.10
2018,07,15,02,27,17.10
2018,07,15,02,28,17.10
2018,07,15,02,29,17.10
2018,07,15,02,30,17.00
2018,07,15,02,31,17.00
2018,07,15,02,32,17.00
2018,07,15,02,33,16.90
2018,07,15,02,34,16.90
2018,07,15,02,35,16.90
2018,07,15,02,36,16.90
2018,07,15,02,37,16.90
2018,07,15,02,38,16.90
2018,07,15,02,39,16.80
2018,07,15,02,40,16.80
2018,07,15,02,41,16.80
2018,07,15,02,42,16.80
2018,07,15,02,43,16.80
2018,07,15,02,44,16.80
2018,07,15,02,45,16.70
2018,07,15,02,46,16.70
2018,07,15,02,47,16.70
2018,07,15,02,48,16.70
2018,07,15,02,49,16.70
2018,07,15,02,50,16.70
2018,07,15,02,51,16.70
2018,07,15,02,52,16.70
2018,07,15,02,53,16.70
2018,07,15,02,54,16.70
2018,07,15,02,55,16.60
2018,07,15,02,56,16.60
2018,07,15,02,57,16.60
2018,07,15,02,58,16.60
2018,07,15,02,59,16.60
2018,07,15,03,00,16.50
2018,07,15,03,01,16.50
2018,07,15,03,02,16.50
2018,07,15,03,03,16.40
2018,07,15,03,04,16.40
2018,07,15,03,05,16.40
2018,07,15,03,06,16.40
2018,07,15,03,07,16.30
2018,07,15,03,08,16.30
2018,07,15,03,09,16.30
2018,07,15,03,10,16.30
2018,07,15,03,11,16.20
2018,07,15,03,12,16.20
2018,07,15,03,13,16.20
2018,07,15,03,14,16.20
2018,07,15,03,15,16.10
2018,07,15,03,16,16.10
2018,07,15,03,17,16.10
2018,07,15,03,18,16.10
2018,07,15,03,19,16.00
2018,07,15,03,20,16.00
2018,07,15,03,21,15.90
2018,07,15,03,22,15.90
2018,07,15,03,23,15.90
2018,07,15,03,24,15.90
2018,07,15,03,25,15.90
2018,07,15,03,26,15.90
2018,07,15,03,27,15.90
2018,07,15,03,28,15.90
2018,07,15,03,29,15.90
2018,07,15,03,30,15.90
2018,07,15,03,31,15.80
2018,07,15,03,32,15.80
2018,07,15,03,33,15.80
2018,07,15,03,34,15.80
2018,07,15,03,35,15.80
2018,07,15,03,36,15.80
2018,07,15,03,37,15.80
2018,07,15,03,38,15.80
2018,07,15,03,39,15.80
2018,07,15,03,40,15.80
2018,07,15,03,41,15.80
2018,07,15,03,42,15.80
2018,07,15,03,43,15.80
2018,07,15,03,44,15.80
2018,07,15,03,45,15.80
2018,07,15,03,46,15.70
2018,07,15,03,47,15.70
2018,07,15,03,48,15.80
2018,07,15,03,49,15.70
2018,07,15,03,50,15.70
2018,07,15,03,51,15.70
2018,07,15,03,52,15.70
2018,07,15,03,53,15.70
2018,07,15,03,54,15.70
2018,07,15,03,55,15.70
2018,07,15,03,56,15.70
2018,07,15,03,57,15.70
2018,07,15,03,58,15.60
2018,07,15,03,59,15.60
2018,07,15,04,00,15.60
2018,07,15,04,01,15.60
2018,07,15,04,02,15.60
2018,07,15,04,03,15.60
2018,07,15,05,04,14.60
2018,07,15,05,05,14.60
2018,07,15,05,06,14.60
2018,07,15,05,07,14.50
2018,07,15,05,08,14.50
2018,07,15,05,09,14.50
2018,07,15,05,10,14.50
2018,07,15,05,11,14.50
2018,07,15,05,12,14.50
2018,07,15,05,13,14.40
2018,07,15,05,14,14.50
2018,07,15,05,15,14.50
2018,07,15,05,16,14.50
2018,07,15,05,17,14.50
2018,07,15,05,18,14.50
2018,07,15,05,19,14.50
2018,07,15,05,20,14.50
2018,07,15,05,21,14.50
2018,07,15,05,22,14.50
2018,07,15,05,23,14.50
2018,07,15,05,24,14.50
2018,07,15,05,25,14.50
2018,07,15,05,26,14.50
2018,07,15,05,27,14.50
2018,07,15,05,28,14.50
2018,07,15,05,29,14.50
2018,07,15,05,30,14.60
2018,07,15,05,31,14.60
2018,07,15,05,32,14.60
2018,07,15,05,33,14.60
2018,07,15,05,34,14.60
2018,07,15,05,35,14.60
2018,07,15,05,36,14.70
2018,07,15,05,37,14.70
2018,07,15,05,38,14.70
2018,07,15,05,39,14.70
2018,07,15,05,40,14.70
2018,07,15,05,41,14.70
2018,07,15,05,42,14.70
2018,07,15,05,43,14.70
2018,07,15,05,44,14.70
2018,07,15,05,45,14.70
2018,07,15,05,46,14.70
2018,07,15,05,47,14.70
2018,07,15,05,48,14.70
2018,07,15,05,49,14.70
2018,07,15,05,50,14.70
2018,07,15,05,51,14.60
2018,07,15,05,52,14.60
2018,07,15,05,53,14.60
2018,07,15,05,54,14.60
2018,07,15,05,55,14.60
2018,07,15,05,56,14.60
2018,07,15,05,57,14.50
2018,07,15,05,58,14.50
2018,07,15,05,59,14.50
2018,07,15,06,00,14.40
2018,07,15,06,01,14.40
2018,07,15,06,02,14.30
2018,07,15,06,03,14.30
2018,07,15,06,04,14.30
2018,07,15,06,05,14.30
2018,07,15,06,06,14.20
2018,07,15,06,07,14.20
2018,07,15,06,08,14.20
2018,07,15,06,09,14.20
2018,07,15,06,10,14.10
2018,07,15,06,11,14.10
2018,07,15,06,12,14.10
2018,07,15,06,13,14.00
2018,07,15,06,14,14.00
2018,07,15,06,15,14.00
2018,07,15,06,16,13.90
2018,07,15,06,17,13.90
2018,07,15,06,18,13.90
2018,07,15,06,19,13.80
2018,07,15,06,20,13.80
2018,07,15,06,21,13.80
2018,07,15,06,22,13.80
2018,07,15,06,23,13.70
2018,07,15,06,24,13.70
2018,07,15,06,25,13.70
2018,07,15,06,26,13.70
2018,07,15,06,27,13.70
2018,07,15,06,28,13.70
2018,07,15,06,29,13.70
2018,07,15,06,30,13.70
2018,07,15,06,31,13.70
2018,07,15,06,32,13.70
2018,07,15,06,33,13.70
2018,07,15,06,34,13.70
2018,07,15,06,35,13.70
2018,07,15,06,36,13.70
2018,07,15,06,37,13.70
2018,07,15,06,38,13.80
2018,07,15,06,39,13.80
2018,07,15,06,40,13.90
2018,07,15,06,41,14.00
2018,07,15,06,42,14.00
2018,07,15,06,43,14.10
2018,07,15,06,44,14.20
2018,07,15,06,45,14.20
2018,07,15,06,46,14.20
2018,07,15,06,47,14.30
2018,07,15,06,48,14.30
2018,07,15,06,49,14.40
2018,07,15,06,50,14.40
2018,07,15,06,51,14.50
2018,07,15,06,52,14.60
2018,07,15,06,53,14.60
2018,07,15,06,54,14.70
2018,07,15,06,55,14.80
2018,07,15,06,56,14.90
2018,07,15,06,57,15.00
2018,07,15,06,58,15.10
2018,07,15,06,59,15.20
2018,07,15,07,00,15.30
2018,07,15,07,01,15.30
2018,07,15,07,02,15.40
2018,07,15,07,03,15.50
2018,07,15,07,04,15.50
2018,07,15,07,05,15.60
2018,07,15,07,06,15.70
2018,07,15,07,07,15.80
2018,07,15,07,08,15.80
2018,07,15,07,09,15.90
2018,07,15,07,10,16.00
2018,07,15,07,11,16.10
2018,07,15,07,12,16.20
2018,07,15,07,13,16.30
2018,07,15,07,14,16.40
2018,07,15,07,15,16.50
2018,07,15,07,16,16.60
2018,07,15,07,17,16.70
2018,07,15,07,18,16.80
2018,07,15,07,19,16.90
2018,07,15,07,20,17.00
2018,07,15,07,21,17.10
2018,07,15,07,22,17.20
2018,07,15,07,23,17.30
2018,07,15,07,24,17.30
2018,07,15,07,25,17.40
2018,07,15,07,26,17.50
2018,07,15,07,27,17.60
2018,07,15,07,28,17.70
2018,07,15,07,29,17.70
2018,07,15,07,30,17.80
2018,07,15,07,31,17.90
2018,07,15,07,32,18.00
2018,07,15,07,33,18.10
2018,07,15,07,34,18.10
2018,07,15,07,35,18.20
2018,07,15,07,36,18.30
2018,07,15,07,37,18.40
2018,07,15,07,38,18.50
2018,07,15,07,39,18.60
2018,07,15,07,40,18.70
2018,07,15,07,41,18.80
2018,07,15,07,42,18.90
2018,07,15,07,43,19.00
2018,07,15,07,44,19.10
2018,07,15,07,45,19.20
2018,07,15,07,46,19.30
2018,07,15,07,47,19.40
2018,07,15,07,48,19.50
2018,07,15,07,49,19.60
2018,07,15,07,50,19.70
2018,07,15,07,51,19.80
2018,07,15,07,52,19.90
2018,07,15,07,53,19.90
2018,07,15,07,54,20.00
2018,07,15,07,55,20.10
2018,07,15,07,56,20.10
2018,07,15,07,57,20.20
2018,07,15,07,58,20.20
2018,07,15,07,59,20.20
2018,07,15,08,00,20.30
2018,07,15,08,01,20.30
2018,07,15,08,02,20.40
2018,07,15,08,03,20.50
2018,07,15,08,04,20.60
2018,07,15,08,05,20.60
2018,07,15,08,06,20.70
2018,07,15,08,07,20.80
2018,07,15,08,08,20.80
2018,07,15,08,09,20.90
2018,07,15,08,10,21.00
2018,07,15,08,11,21.10
2018,07,15,08,12,21.10
2018,07,15,08,13,21.20
2018,07,15,08,14,21.30
2018,07,15,08,15,21.40
2018,07,15,08,16,21.50
2018,07,15,08,17,21.60
2018,07,15,08,18,21.70
2018,07,15,08,19,21.80
2018,07,15,08,20,21.80
2018,07,15,08,21,21.90
2018,07,15,08,22,22.00
2018,07,15,08,23,22.00
2018,07,15,08,24,22.10
2018,07,15,08,25,22.10
2018,07,15,08,26,22.10
2018,07,15,08,27,22.00
2018,07,15,08,28,22.00
2018,07,15,08,29,21.90
2018,07,15,08,30,21.90
2018,07,15,08,31,21.90
2018,07,15,08,32,22.00
2018,07,15,08,33,22.00
2018,07,15,08,34,22.00
2018,07,15,08,35,22.00
2018,07,15,08,36,22.00
2018,07,15,08,37,21.90
2018,07,15,08,38,21.90
2018,07,15,08,39,21.90
2018,07,15,08,40,21.90
2018,07,15,08,41,21.80
2018,07,15,08,42,21.80
2018,07,15,08,43,21.80
2018,07,15,08,44,21.80
2018,07,15,08,45,21.90
2018,07,15,08,46,21.90
2018,07,15,08,47,21.90
2018,07,15,08,48,21.80
2018,07,15,08,49,21.80
2018,07,15,08,50,21.80
2018,07,15,08,51,21.80
2018,07,15,08,52,21.80
2018,07,15,08,53,21.80
2018,07,15,08,54,21.80
2018,07,15,08,55,21.80
2018,07,15,08,56,21.80
2018,07,15,08,57,21.90
2018,07,15,08,58,21.90
2018,07,15,08,59,21.90
2018,07,15,09,00,21.90
2018,07,15,09,01,21.80
2018,07,15,09,02,21.80
2018,07,15,09,03,21.80
2018,07,15,09,04,21.90
2018,07,15,09,05,21.90
2018,07,15,09,06,22.00
2018,07,15,09,07,22.00
2018,07,15,09,08,22.10
2018,07,15,09,09,22.20
2018,07,15,09,10,22.30
2018,07,15,09,11,22.40
2018,07,15,09,12,22.50
2018,07,15,09,13,22.50
2018,07,15,09,14,22.60
2018,07,15,09,15,22.60
2018,07,15,09,16,22.70
2018,07,15,09,17,22.70
2018,07,15,09,18,22.80
2018,07,15,09,19,22.80
2018,07,15,09,20,22.80
2018,07,15,09,21,22.80
2018,07,15,09,22,22.80
2018,07,15,09,23,22.80
2018,07,15,09,24,22.80
2018,07,15,09,25,22.80
2018,07,15,09,26,22.80
2018,07,15,09,27,22.80
2018,07,15,09,28,22.80
2018,07,15,09,29,22.80
2018,07,15,09,30,22.80
2018,07,15,09,31,22.90
2018,07,15,09,32,22.90
2018,07,15,09,33,22.80
2018,07,15,09,34,22.80
2018,07,15,09,35,22.80
2018,07,15,09,36,22.80
2018,07,15,09,37,22.80
2018,07,15,09,38,22.80
2018,07,15,09,39,22.80
2018,07,15,09,40,22.80
2018,07,15,09,41,22.90
2018,07,15,09,42,22.90
2018,07,15,09,43,23.00
2018,07,15,09,44,23.10
2018,07,15,09,45,23.10
2018,07,15,09,46,23.10
2018,07,15,09,47,23.10
2018,07,15,09,48,23.10
2018,07,15,09,49,23.10
2018,07,15,09,50,23.10
2018,07,15,09,51,23.10
2018,07,15,09,52,23.20
2018,07,15,09,53,23.20
2018,07,15,09,54,23.20
2018,07,15,09,55,23.20
2018,07,15,09,56,23.30
2018,07,15,09,57,23.30
2018,07,15,09,58,23.40
2018,07,15,09,59,23.30
2018,07,15,10,00,23.30
2018,07,15,10,01,23.40
2018,07,15,10,02,23.40
2018,07,15,10,03,23.40
2018,07,15,10,04,23.50
2018,07,15,10,05,23.50
2018,07,15,10,06,23.40
2018,07,15,10,07,23.40
2018,07,15,10,08,23.30
2018,07,15,10,09,23.30
2018,07,15,10,10,23.20
2018,07,15,10,11,23.20
2018,07,15,10,12,23.20
2018,07,15,10,13,23.20
2018,07,15,10,14,23.20
2018,07,15,10,15,23.20
2018,07,15,10,16,23.20
2018,07,15,10,17,23.20
2018,07,15,10,18,23.20
2018,07,15,10,19,23.30
2018,07,15,10,20,23.30
2018,07,15,10,21,23.40
2018,07,15,10,22,23.50
2018,07,15,10,23,23.50
2018,07,15,10,24,23.60
2018,07,15,10,25,23.60
2018,07,15,10,26,23.60
2018,07,15,10,27,23.60
2018,07,15,10,28,23.60
2018,07,15,10,29,23.60
2018,07,15,10,30,23.60
2018,07,15,10,31,23.60
2018,07,15,10,32,23.60
2018,07,15,10,33,23.60
2018,07,15,10,34,23.50
2018,07,15,10,35,23.50
2018,07,15,10,36,23.40
2018,07,15,10,37,23.40
2018,07,15,10,38,23.40
2018,07,15,10,39,23.40
2018,07,15,10,40,23.40
2018,07,15,10,41,23.30
2018,07,15,10,42,23.30
2018,07,15,10,43,23.30
2018,07,15,10,44,23.30
2018,07,15,10,45,23.30
2018,07,15,10,46,23.30
2018,07,15,10,47,23.40
2018,07,15,10,48,23.40
2018,07,15,10,49,23.40
2018,07,15,10,50,23.40
2018,07,15,10,51,23.50
2018,07,15,10,52,23.50
2018,07,15,10,53,23.60
2018,07,15,10,54,23.70
2018,07,15,10,55,23.70
2018,07,15,10,56,23.70
2018,07,15,10,57,23.80
2018,07,15,10,58,23.80
2018,07,15,10,59,23.90
2018,07,15,11,00,23.90
2018,07,15,11,01,24.00
2018,07,15,11,02,24.10
2018,07,15,11,03,24.10
2018,07,15,11,04,24.20
2018,07,15,11,05,24.20
2018,07,15,11,06,24.30
2018,07,15,11,07,24.40
2018,07,15,11,08,24.40
2018,07,15,11,09,24.40
2018,07,15,11,10,24.40
2018,07,15,11,11,24.40
2018,07,15,11,12,24.40
2018,07,15,11,13,24.40
2018,07,15,11,14,24.40
2018,07,15,11,15,24.40
2018,07,15,11,16,24.40
2018,07,15,11,17,24.50
2018,07,15,11,18,24.50
2018,07,15,11,19,24.60
2018,07,15,11,20,24.60
2018,07,15,11,21,24.70
2018,07,15,11,22,24.70
2018,07,15,11,23,24.80
2018,07,15,11,24,24.90
2018,07,15,11,25,24.90
2018,07,15,11,26,25.00
2018,07,15,11,27,25.10
2018,07,15,11,28,25.10
2018,07,15,11,29,25.10
2018,07,15,11,30,25.10
2018,07,15,11,31,25.20
2018,07,15,11,32,25.20
2018,07,15,11,33,25.20
2018,07,15,11,34,25.20
2018,07,15,11,35,25.20
2018,07,15,11,36,25.20
2018,07,15,11,37,25.10
2018,07,15,11,38,25.10
2018,07,15,11,39,25.10
2018,07,15,11,40,25.20
2018,07,15,11,41,25.20
2018,07,15,11,42,25.20
2018,07,15,11,43,25.20
2018,07,15,11,44,25.20
2018,07,15,11,45,25.20
2018,07,15,11,46,25.20
2018,07,15,11,47,25.20
2018,07,15,11,48,25.20
2018,07,15,11,49,25.20
2018,07,15,11,50,25.20
2018,07,15,11,51,25.30
2018,07,15,11,52,25.30
2018,07,15,11,53,25.30
2018,07,15,11,54,25.30
2018,07,15,11,55,25.20
2018,07,15,11,56,25.30
2018,07,15,11,57,25.30
2018,07,15,11,58,25.40
2018,07,15,11,59,25.50
2018,07,15,12,00,25.60
2018,07,15,12,01,25.60
2018,07,15,12,02,25.60
2018,07,15,12,03,25.60
2018,07,15,12,04,25.50
2018,07,15,12,05,25.50
2018,07,15,12,06,25.50
2018,07,15,12,07,25.40
2018,07,15,12,08,25.40
2018,07,15,12,09,25.50
2018,07,15,12,10,25.60
2018,07,15,12,11,25.60
2018,07,15,12,12,25.60
2018,07,15,12,13,25.60
2018,07,15,12,14,25.70
2018,07,15,12,15,25.80
2018,07,15,12,16,25.80
2018,07,15,12,17,25.80
2018,07,15,12,18,25.80
2018,07,15,12,19,25.90
2018,07,15,12,20,25.80
2018,07,15,12,21,25.80
2018,07,15,12,22,25.80
2018,07,15,12,23,25.80
2018,07,15,12,24,25.80
2018,07,15,12,25,25.90
2018,07,15,12,26,25.90
2018,07,15,12,27,26.00
2018,07,15,12,28,26.10
2018,07,15,12,29,26.10
2018,07,15,12,30,26.10
2018,07,15,12,31,26.10
2018,07,15,12,32,26.10
2018,07,15,12,33,26.10
2018,07,15,12,34,26.20
2018,07,15,12,35,26.20
2018,07,15,12,36,26.10
2018,07,15,12,37,26.10
2018,07,15,12,38,26.10
2018,07,15,12,39,26.20
2018,07,15,12,40,26.20
2018,07,15,12,41,26.30
2018,07,15,12,42,26.30
2018,07,15,12,43,26.30
2018,07,15,12,44,26.40
2018,07,15,12,45,26.40
2018,07,15,12,46,26.40
2018,07,15,12,47,26.30
2018,07,15,12,48,26.30
2018,07,15,12,49,26.30
2018,07,15,12,50,26.30
2018,07,15,12,51,26.30
2018,07,15,12,52,26.30
2018,07,15,12,53,26.30
2018,07,15,12,54,26.40
2018,07,15,12,55,26.40
2018,07,15,12,56,26.50
2018,07,15,12,57,26.60
2018,07,15,12,58,26.60
2018,07,15,12,59,26.70
2018,07,15,13,00,26.80
2018,07,15,13,01,26.80
2018,07,15,13,02,26.80
2018,07,15,13,03,26.80
2018,07,15,13,04,26.90
2018,07,15,13,05,26.90
2018,07,15,13,06,26.90
2018,07,15,13,07,27.00
2018,07,15,13,08,27.00
2018,07,15,13,09,27.00
2018,07,15,13,10,26.90
2018,07,15,13,11,26.90
2018,07,15,13,12,26.80
2018,07,15,13,13,26.80
2018,07,15,13,14,26.90
2018,07,15,13,15,26.90
2018,07,15,13,16,27.00
2018,07,15,13,17,27.10
2018,07,15,13,18,27.10
2018,07,15,13,19,27.00
2018,07,15,13,20,26.90
2018,07,15,13,21,26.90
2018,07,15,13,22,26.80
2018,07,15,13,23,26.80
2018,07,15,13,24,26.70
2018,07,15,13,25,26.70
2018,07,15,13,26,26.70
2018,07,15,13,27,26.70
2018,07,15,13,28,26.70
2018,07,15,13,29,26.60
2018,07,15,13,30,26.60
2018,07,15,13,31,26.60
2018,07,15,13,32,26.60
2018,07,15,13,33,26.50
2018,07,15,13,34,26.50
2018,07,15,13,35,26.50
2018,07,15,13,36,26.60
2018,07,15,13,37,26.70
2018,07,15,13,38,26.80
2018,07,15,13,39,27.00
2018,07,15,13,40,27.10
2018,07,15,13,41,27.20
2018,07,15,13,42,27.40
2018,07,15,13,43,27.50
2018,07,15,13,44,27.60
2018,07,15,13,45,27.60
2018,07,15,13,46,27.60
2018,07,15,13,47,27.60
2018,07,15,13,48,27.70
2018,07,15,13,49,27.80
2018,07,15,13,50,27.80
2018,07,15,13,51,27.90
2018,07,15,13,52,27.90
2018,07,15,13,53,27.90
2018,07,15,13,54,27.90
2018,07,15,13,55,27.90
2018,07,15,13,56,27.80
2018,07,15,13,57,27.70
2018,07,15,13,58,27.70
2018,07,15,13,59,27.60
2018,07,15,14,00,27.60
2018,07,15,14,01,27.50
2018,07,15,14,02,27.40
2018,07,15,14,03,27.30
2018,07,15,14,04,27.30
2018,07,15,14,05,27.40
2018,07,15,14,06,27.50
2018,07,15,14,07,27.50
2018,07,15,14,08,27.60
2018,07,15,14,09,27.60
2018,07,15,14,10,27.70
2018,07,15,14,11,27.70
2018,07,15,14,12,27.70
2018,07,15,14,13,27.70
2018,07,15,14,14,27.70
2018,07,15,14,15,27.70
2018,07,15,14,16,27.80
2018,07,15,14,17,27.80
2018,07,15,14,18,27.90
2018,07,15,14,19,28.00
2018,07,15,14,20,28.10
2018,07,15,14,21,28.20
2018,07,15,14,22,28.30
2018,07,15,14,23,28.40
2018,07,15,14,24,28.50
2018,07,15,14,25,28.60
2018,07,15,14,26,28.70
2018,07,15,14,27,28.80
2018,07,15,14,28,28.80
2018,07,15,14,29,28.80
2018,07,15,14,30,28.70
2018,07,15,14,31,28.60
2018,07,15,14,32,28.50
2018,07,15,14,33,28.50
2018,07,15,14,34,28.50
2018,07,15,14,35,28.50
2018,07,15,14,36,28.50
2018,07,15,14,37,28.60
2018,07,15,14,38,28.60
2018,07,15,14,39,28.60
2018,07,15,14,40,28.70
2018,07,15,14,41,28.70
2018,07,15,14,42,28.70
2018,07,15,14,43,28.70
2018,07,15,14,44,28.80
2018,07,15,14,45,28.90
2018,07,15,14,46,28.90
2018,07,15,14,47,28.90
2018,07,15,14,48,29.00
2018,07,15,14,49,29.00
2018,07,15,14,50,29.10
2018,07,15,14,51,29.10
2018,07,15,14,52,29.10
2018,07,15,14,53,29.10
2018,07,15,14,54,29.10
2018,07,15,14,55,29.10
2018,07,15,14,56,29.10
2018,07,15,14,57,29.10
2018,07,15,14,58,29.20
2018,07,15,14,59,29.20
2018,07,15,15,00,29.20
2018,07,15,15,01,29.10
2018,07,15,15,02,29.00
2018,07,15,15,03,28.90
2018,07,15,15,04,28.80
2018,07,15,15,05,28.80
2018,07,15,15,06,28.70
2018,07,15,15,07,28.70
2018,07,15,15,08,28.70
2018,07,15,15,09,28.70
2018,07,15,15,10,28.80
2018,07,15,15,11,28.80
2018,07,15,15,12,28.90
2018,07,15,15,13,28.90
2018,07,15,15,14,28.90
2018,07,15,15,15,28.80
2018,07,15,15,16,28.80
2018,07,15,15,17,28.80
2018,07,15,15,18,28.80
2018,07,15,15,19,28.80
2018,07,15,15,20,28.80
2018,07,15,15,21,28.90
2018,07,15,15,22,29.00
2018,07,15,15,23,29.10
2018,07,15,15,24,29.20
2018,07,15,15,25,29.30
2018,07,15,15,26,29.30
2018,07,15,15,27,29.30
2018,07,15,15,28,29.40
2018,07,15,15,29,29.40
2018,07,15,15,30,29.50
2018,07,15,15,31,29.50
2018,07,15,15,32,29.60
2018,07,15,15,33,29.60
2018,07,15,15,34,29.60
2018,07,15,15,35,29.60
2018,07,15,15,36,29.50
2018,07,15,15,37,29.50
2018,07,15,15,38,29.50
2018,07,15,15,39,29.60
2018,07,15,15,40,29.60
2018,07,15,15,41,29.70
2018,07,15,15,42,29.70
2018,07,15,15,43,29.80
2018,07,15,15,44,29.80
2018,07,15,15,45,29.80
2018,07,15,15,46,29.80
2018,07,15,15,47,29.80
2018,07,15,15,48,29.70
2018,07,15,15,49,29.70
2018,07,15,15,50,29.70
2018,07,15,15,51,29.70
2018,07,15,15,52,29.80
2018,07,15,15,53,29.80
2018,07,15,15,54,29.90
2018,07,15,15,55,30.00
2018,07,15,15,56,30.10
2018,07,15,15,57,30.30
2018,07,15,15,58,30.40
2018,07,15,15,59,30.50
2018,07,15,16,00,30.50
2018,07,15,16,01,30.60
2018,07,15,16,02,30.60
2018,07,15,16,03,30.60
2018,07,15,16,04,30.60
2018,07,15,16,05,30.60
2018,07,15,16,06,30.60
2018,07,15,16,07,30.60
2018,07,15,16,08,30.60
2018,07,15,16,09,30.60
2018,07,15,17,04,32.30
2018,07,15,17,05,32.30
2018,07,15,17,06,32.30
2018,07,15,17,07,32.30
2018,07,15,17,08,32.30
2018,07,15,17,09,32.20
2018,07,15,17,10,32.10
2018,07,15,17,11,32.00
2018,07,15,17,12,31.90
2018,07,15,17,13,31.80
2018,07,15,17,14,31.70
2018,07,15,17,15,31.60
2018,07,15,17,16,31.60
2018,07,15,17,17,31.50
2018,07,15,17,18,31.50
2018,07,15,17,19,31.40
2018,07,15,17,20,31.40
2018,07,15,17,21,31.30
2018,07,15,17,22,31.20
2018,07,15,17,23,31.20
2018,07,15,17,24,31.10
2018,07,15,17,25,31.00
2018,07,15,17,26,30.90
2018,07,15,17,27,30.80
2018,07,15,17,28,30.80
2018,07,15,17,29,30.70
2018,07,15,17,30,30.60
2018,07,15,17,31,30.60
2018,07,15,17,32,30.50
2018,07,15,17,33,30.40
2018,07,15,17,34,30.40
2018,07,15,17,35,30.40
2018,07,15,17,36,30.40
2018,07,15,17,37,30.50
2018,07,15,17,38,30.50
2018,07,15,17,39,30.50
2018,07,15,17,40,30.40
2018,07,15,17,41,30.40
2018,07,15,17,42,30.30
2018,07,15,17,43,30.30
2018,07,15,17,44,30.30
2018,07,15,17,45,30.20
2018,07,15,17,46,30.20
2018,07,15,17,47,30.20
2018,07,15,17,48,30.20
2018,07,15,17,49,30.20
2018,07,15,17,50,30.20
2018,07,15,17,51,30.20
2018,07,15,17,52,30.20
2018,07,15,17,53,30.20
2018,07,15,17,54,30.20
2018,07,15,17,55,30.20
2018,07,15,17,56,30.20
2018,07,15,17,57,30.20
2018,07,15,17,58,30.20
2018,07,15,17,59,30.20
2018,07,15,18,00,30.20
2018,07,15,18,01,30.10
2018,07,15,18,02,30.10
2018,07,15,18,03,30.10
2018,07,15,18,04,30.20
2018,07,15,18,05,30.20
2018,07,15,18,06,30.20
2018,07,15,18,07,30.20
2018,07,15,18,08,30.30
2018,07,15,18,09,30.20
2018,07,15,18,10,30.20
2018,07,15,18,11,30.20
2018,07,15,18,12,30.20
2018,07,15,18,13,30.20
2018,07,15,18,14,30.30
2018,07,15,18,15,30.30
2018,07,15,18,16,30.30
2018,07,15,18,17,30.30
2018,07,15,18,18,30.30
2018,07,15,18,19,30.30
2018,07,15,18,20,30.30
2018,07,15,18,21,30.30
2018,07,15,18,22,30.30
2018,07,15,18,23,30.30
2018,07,15,18,24,30.30
2018,07,15,18,25,30.30
2018,07,15,18,26,30.20
2018,07,15,18,27,30.10
2018,07,15,18,28,30.00
2018,07,15,18,29,30.00
2018,07,15,18,30,29.90
2018,07,15,18,31,29.90
2018,07,15,18,32,29.80
2018,07,15,18,33,29.80
2018,07,15,18,34,29.80
2018,07,15,18,35,29.70
2018,07,15,18,36,29.60
2018,07,15,18,37,29.50
2018,07,15,18,38,29.40
2018,07,15,18,39,29.40
2018,07,15,18,40,29.30
2018,07,15,18,41,29.30
2018,07,15,18,42,29.20
2018,07,15,18,43,29.20
2018,07,15,18,44,29.20
2018,07,15,18,45,29.10
2018,07,15,18,46,29.20
2018,07,15,18,47,29.20
2018,07,15,18,48,29.20
2018,07,15,18,49,29.30
2018,07,15,18,50,29.30
2018,07,15,18,51,29.40
2018,07,15,18,52,29.50
2018,07,15,18,53,29.50
2018,07,15,18,54,29.50
2018,07,15,18,55,29.50
2018,07,15,18,56,29.50
2018,07,15,18,57,29.50
2018,07,15,18,58,29.50
2018,07,15,18,59,29.50
2018,07,15,19,00,29.60
2018,07,15,19,01,29.60
2018,07,15,19,02,29.60
2018,07,15,19,03,29.50
2018,07,15,19,04,29.50
2018,07,15,19,05,29.50
2018,07,15,19,06,29.50
2018,07,15,19,07,29.50
2018,07,15,19,08,29.40
2018,07,15,19,09,29.40
2018,07,15,19,10,29.40
2018,07,15,19,11,29.30
2018,07,15,19,12,29.30
2018,07,15,19,13,29.20